Flag Weather past 2 weeks in Ravensburg, Baden-Württemberg, Germany

Now
43 °F

Clear.


Feels Like: 41 °F
Forecast: 41 / 62 °F
Wind: 3 mph from East

Location: Friedrichshafen Airport

Current Time: Oct 31, 2014 at 10:39:13 PM

Latest Report: Oct 31, 2014 at 9:50 PM


Visibility: 10 mi

Pressure: 30.27 "Hg

Humidity: 93%

Dew point: 41 °F

Location of RavensburgLocation

Historic Weather in Ravensburg — Graph

°F

Ravensburg temperature yesterday

Maximum temperature yesterday: 59 °F (at 2:50 PM)
Minimum temperature yesterday: 36 °F (at 12:20 AM)
Average temperature yesterday: 46 °F

Past Weeks' High & Low Weather Summary

 TemperatureHumidityPressure
High70 °F (Oct 20, 2:20 PM)94% (Oct 17, 1:50 AM)30.36 "Hg (Oct 17, 1:50 AM)
Low36 °F (Oct 25, 12:50 AM)52% (Oct 26, 4:20 PM)29.71 "Hg (Oct 21, 7:20 PM)
Average49 °F80%30.16 "Hg
* Reported Oct 16 10:20 PM — Oct 31 9:20 PM, Ravensburg, Weather by CustomWeather, © 2014

Note: Actual official high and low records may vary slightly from our data, if they occured in-between our weather recording intervals... More about our weather records

Advertising

Ravensburg weather history for previous 24 hours

 ConditionsComfort  
Time TempWeatherWind HumidityBarometerVisibility
9:20 PM
Oct 31
43 °FClear.5 mph93%30.27 "Hg10 mi
8:50 PM43 °FClear.2 mph93%30.27 "Hg10 mi
8:20 PM45 °FClear.2 mph93%30.27 "Hg10 mi
7:50 PM45 °FClear.1 mph93%30.27 "Hg10 mi
7:20 PM46 °FClear.2 mph87%30.27 "Hg10 mi
6:50 PM46 °FClear.2 mph87%30.27 "Hg10 mi
6:20 PM48 °FClear.No wind87%30.27 "Hg10 mi
5:50 PM50 °FClear.No wind82%30.27 "Hg10 mi
5:20 PM52 °FClear.1 mph82%30.27 "Hg10 mi
4:50 PM54 °FSunny.2 mph72%30.27 "Hg10 mi
4:20 PM55 °FSunny.2 mph72%30.27 "Hg10 mi
3:50 PM57 °FSunny.2 mph63%30.27 "Hg10 mi
3:20 PM55 °FSunny.3 mph67%30.27 "Hg10 mi
2:50 PM55 °FSunny.5 mph67%30.27 "Hg10 mi
2:20 PM55 °FSunny.5 mph72%30.30 "Hg10 mi
1:50 PM55 °FSunny.6 mph67%30.30 "Hg10 mi
1:20 PM57 °FSunny.1 mph59%30.30 "Hg10 mi
12:50 PM55 °FSunny.2 mph67%30.33 "Hg10 mi
12:20 PM54 °FSunny.3 mph72%30.33 "Hg10 mi
11:50 AM52 °FSunny.3 mph77%30.33 "Hg10 mi
11:20 AM50 °FSunny.1 mph94%30.33 "Hg10 mi
10:50 AM48 °FPassing clouds.1 mph94%30.33 "HgN/A
10:20 AM46 °FPassing clouds.2 mph93%30.36 "HgN/A
9:50 AM43 °FFog.6 mph93%30.36 "Hg1 mi
9:20 AM41 °FFog.5 mph93%30.33 "Hg0 mi
8:50 AM41 °FFog.3 mph93%30.33 "Hg0 mi
8:20 AM41 °FFog.3 mph93%30.33 "Hg0 mi
7:50 AM41 °FFog.3 mph87%30.33 "Hg0 mi
7:20 AM41 °FFog.3 mph87%30.33 "Hg0 mi
6:50 AM41 °FFog.6 mph87%30.30 "Hg0 mi
6:20 AM41 °FFog.3 mph87%30.30 "Hg0 mi
5:50 AM41 °FFog.5 mph93%30.30 "Hg0 mi
5:20 AM41 °FQuite cool.6 mph93%30.30 "Hg0 mi
5:01 AM41 °FQuite cool.5 mph93%30.30 "Hg1 mi
4:50 AM41 °FQuite cool.6 mph93%30.33 "Hg1 mi
4:20 AM41 °FQuite cool.5 mph93%30.30 "Hg1 mi
3:58 AM41 °FQuite cool.5 mph93%30.30 "Hg1 mi
3:50 AM41 °FQuite cool.6 mph93%30.30 "Hg1 mi
3:20 AM43 °FPassing clouds.7 mph87%30.33 "Hg4 mi
2:55 AM39 °FChilly.5 mph93%30.30 "Hg1 mi
2:20 AM41 °FFog.3 mph93%30.30 "Hg3 mi
1:55 AM39 °FChilly.5 mph93%30.30 "Hg1 mi
1:20 AM43 °FQuite cool.6 mph93%30.33 "Hg2 mi
12:50 AM41 °FQuite cool.3 mph87%30.30 "Hg2 mi
12:20 AM41 °FQuite cool.2 mph87%30.30 "Hg1 mi
11:50 PM
Oct 30
43 °FQuite cool.6 mph93%30.33 "Hg2 mi
11:20 PM43 °FFog.5 mph87%30.33 "Hg2 mi
10:50 PM43 °FQuite cool.3 mph93%30.30 "Hg3 mi
10:20 PM43 °FFog.3 mph87%30.30 "Hg3 mi
Weather by CustomWeather, © 2014

See weather overviewHow to use our weather pages